Temperature
5 5 5 5 5 5 5 5 5 4 5 5 5 5 6 6 6 6 6 7 7 7 7 7 7 7 7 7 7 7 7 7 7 7 6 6 6 6
4 4 4 4 4 4 4 4 4 4 4 4 4 5 5 5 5 6 6 6 6 6 6 6 6 6 6 6 6 6 6 6 6 6 6 6 6 6
4 4 4 4 4 4 4 4 4 3 3 3 4 4 4 4 5 5 5 5 5 5 6 6 6 6 6 6 6 6 6 6 6 6 6 6 5 5
3 3 3 3 3 3 3 3 3 3 3 3 3 3 3 4 4 4 4 4 4 5 5 5 5 5 5 5 5 5 5 5 5 5 5 5 5 5
3 3 3 3 3 3 3 2 2 2 2 2 3 3 3 3 3 3 3 4 4 4 4 4 4 4 5 5 5 4 4 4 5 5 5 5 5 5
2 2 2 2 2 2 2 2 2 2 2 2 2 2 2 2 2 2 2 3 3 3 3 3 3 4 4 4 4 4 4 4 4 4 4 4 4 4
2 2 2 2 2 2 1 1 1 1 1 1 1 1 1 1 1 1 1 2 2 2 2 2 3 3 3 3 3 3 3 4 4 4 4 4 4 4
1 1 1 1 1 1 1 1 1 1 0 0 0 0 0 1 1 0 0 0 0 1 1 2 2 2 2 2 3 3 3 3 3 3 3 4 4 3
1 1 1 1 1 1 1 1 0 0 1 0 0 0 0 0 0 -0 -0 -0 -0 1 0 1 1 1 1 2 2 2 2 2 2 3 3 3 3 3
0 0 0 0 0 0 0 0 -0 -0 0 -0 -0 -0 -0 -0 -0 -0 -1 -1 -0 -0 -0 -0 0 0 1 1 2 2 2 2 2 2 2 2 2 3
-0 -0 -0 -0 -0 -0 -0 -1 -1 -0 -0 -0 -0 -0 -1 -1 -1 -1 -1 -1 -1 -1 -1 -1 -1 -1 0 1 1 1 1 1 1 1 2 2 2 2
-1 -1 -1 -1 -1 -1 -1 -1 -1 -1 -1 -1 -1 -1 -1 -1 -1 -1 -1 -2 -2 -2 -2 -2 -2 -2 -1 -0 -0 0 0 0 1 1 1 1 1 1
-1 -1 -1 -1 -1 -1 -2 -2 -2 -2 -2 -2 -2 -1 -1 -1 -1 -2 -2 -2 -2 -2 -2 -3 -3 -2 -2 -2 -1 -0 -1 -0 -0 0 1 1 1 1
-2 -2 -2 -2 -2 -2 -2 -2 -2 -2 -2 -2 -2 -2 -2 -2 -2 -2 -2 -2 -2 -2 -2 -3 -3 -3 -3 -3 -2 -1 -1 -1 -1 -0 0 0 0 0
-3 -3 -3 -2 -3 -3 -2 -2 -2 -2 -3 -3 -3 -3 -3 -3 -2 -2 -2 -2 -2 -2 -2 -2 -3 -3 -3 -3 -2 -2 -2 -1 -1 -1 -1 -0 -0 -0
-3 -3 -3 -3 -3 -3 -3 -3 -3 -3 -3 -3 -3 -3 -3 -3 -3 -3 -3 -3 -3 -2 -2 -3 -3 -3 -3 -3 -3 -2 -2 -2 -2 -1 -1 -1 -1 -0
-4 -4 -4 -4 -4 -4 -4 -4 -4 -4 -4 -4 -4 -4 -3 -3 -3 -3 -3 -3 -4 -3 -3 -3 -3 -3 -3 -3 -3 -2 -2 -2 -2 -2 -2 -1 -1 -1
-4 -4 -4 -4 -4 -4 -4 -4 -4 -4 -4 -4 -4 -4 -4 -4 -4 -4 -4 -4 -4 -4 -4 -4 -4 -3 -3 -3 -3 -3 -3 -3 -2 -2 -2 -2 -2 -1
-4 -5 -5 -5 -5 -5 -5 -5 -5 -5 -5 -5 -5 -5 -5 -5 -5 -5 -5 -5 -5 -4 -4 -4 -4 -4 -4 -4 -3 -3 -3 -3 -3 -3 -2 -2 -2 -1
-5 -5 -5 -5 -5 -5 -6 -6 -6 -5 -6 -6 -6 -6 -6 -5 -5 -5 -5 -5 -5 -5 -4 -4 -4 -4 -4 -4 -4 -4 -3 -3 -3 -3 -3 -3 -2 -2
-5 -5 -5 -6 -6 -6 -6 -6 -6 -6 -6 -6 -6 -6 -6 -6 -6 -6 -6 -5 -5 -5 -5 -5 -5 -4 -4 -4 -4 -4 -4 -4 -3 -3 -3 -3 -3 -2
-5 -5 -6 -6 -6 -6 -7 -7 -7 -7 -7 -7 -7 -7 -7 -6 -6 -6 -6 -6 -6 -6 -5 -5 -5 -5 -5 -5 -5 -4 -4 -4 -4 -4 -3 -3 -3 -3
-5 -5 -6 -6 -6 -6 -7 -7 -7 -7 -7 -7 -7 -7 -7 -7 -6 -6 -6 -6 -6 -6 -6 -6 -5 -5 -5 -5 -5 -5 -4 -4 -4 -4 -4 -4 -3 -3
Wind_Speed
6 7 7 6 6 6 6 6 7 7 7 5 4 4 5 6 7 8 10 9 11 13 14 14 14 14 14 15 15 15 14 14 15 16 16 17 18 19
5 7 7 6 6 6 6 6 7 7 7 5 5 6 6 6 8 9 10 11 12 13 14 14 14 14 14 14 15 15 14 15 15 16 17 18 18 19
6 6 7 7 6 5 6 6 6 6 8 7 6 6 7 7 7 8 9 10 10 12 14 15 15 14 14 14 14 14 14 15 15 16 17 18 18 18
7 7 7 5 7 6 6 7 7 7 7 8 7 6 8 7 8 8 8 9 9 11 12 14 14 14 14 14 13 13 13 14 15 16 17 18 18 19
7 7 6 6 7 6 7 7 6 6 6 7 7 7 7 6 7 8 8 8 9 10 11 12 13 14 15 14 13 13 13 14 15 16 16 17 18 19
6 6 6 6 7 7 7 7 7 7 7 7 6 6 6 6 6 7 7 7 8 8 9 10 12 14 14 14 14 13 13 14 14 15 15 16 16 17
6 6 6 6 7 7 6 7 7 7 7 6 6 6 6 6 6 6 8 8 9 7 7 8 8 9 9 12 13 13 13 13 14 15 15 15 16 17
5 5 5 6 7 8 9 9 9 9 8 8 7 8 9 8 7 7 7 8 8 5 7 9 8 9 9 9 11 13 13 13 14 15 15 15 16 16
6 6 5 5 7 7 8 9 9 11 11 10 10 10 10 9 8 8 9 9 10 8 8 10 8 9 8 10 13 13 13 14 14 14 14 14 14 15
6 6 6 7 6 7 7 7 8 8 9 9 10 10 10 9 9 9 9 9 9 8 7 8 8 9 9 9 11 12 13 13 13 13 13 14 14 15
6 6 7 7 7 8 7 7 7 7 6 8 9 10 11 11 9 7 6 6 8 7 6 6 7 9 9 8 8 10 11 11 12 12 13 13 13 13
5 6 6 7 8 8 7 7 7 7 6 6 7 7 8 8 8 8 7 7 7 6 4 5 6 6 6 6 6 7 8 10 11 12 12 12 12 9
5 5 5 6 8 8 8 6 7 8 6 6 6 6 6 5 6 6 6 7 7 7 5 5 6 6 6 6 7 7 7 7 7 9 10 11 11 9
5 5 5 8 8 8 7 6 8 7 5 4 5 5 5 5 5 5 7 7 8 9 9 7 6 7 7 8 7 6 7 6 6 7 7 8 9 11
5 7 8 8 8 6 6 7 7 4 4 4 5 5 5 5 5 5 5 5 7 7 7 7 7 6 7 7 7 6 7 6 6 6 6 6 6 6
6 6 7 7 6 6 6 5 4 4 4 4 5 5 5 4 4 4 4 4 5 5 5 6 7 7 7 7 7 7 6 5 5 6 7 7 6 6
6 5 4 4 4 3 4 4 4 4 4 4 4 4 4 4 4 4 3 4 5 5 6 5 5 6 7 7 6 7 6 6 6 6 6 7 6 6
6 5 4 4 4 4 4 4 4 4 4 4 4 4 4 4 4 4 4 4 5 5 5 5 4 4 4 4 6 6 6 6 6 6 6 6 6 5
5 5 5 4 4 4 4 4 4 4 4 4 4 4 4 4 4 4 4 5 5 5 5 4 4 4 5 6 4 4 5 6 5 5 5 5 6 6
5 5 5 4 4 4 4 4 4 4 4 4 4 4 4 4 4 4 4 5 5 5 5 4 4 4 5 5 5 6 6 5 5 5 5 5 5 6
5 5 5 5 4 4 4 4 5 5 5 4 4 4 4 4 5 5 5 6 6 5 5 5 5 6 4 3 4 5 5 5 5 5 5 5 4 4
5 5 5 5 4 4 4 4 5 5 5 4 4 4 4 5 5 5 5 5 5 5 6 5 4 4 4 4 5 5 6 5 5 4 4 4 3 3
6 5 5 5 5 4 4 5 5 5 5 5 5 5 5 5 5 5 5 5 5 5 5 4 4 4 4 4 4 4 5 5 4 4 4 5 4 4
Wind_Direction
261 259 256 254 250 251 252 250 250 257 258 262 262 247 273 274 272 272 271 268 269 267 267 266 267 269 267 268 268 268 268 269 271 272 273 272 269 268
263 260 259 257 252 252 250 249 249 253 260 267 276 287 281 278 276 278 277 279 271 266 268 268 270 271 266 265 266 265 266 267 269 271 273 274 274 271
263 262 263 259 253 251 249 247 249 251 260 273 280 282 283 278 283 283 279 276 273 271 269 269 267 266 264 264 267 266 266 268 269 270 272 274 275 274
262 261 261 256 253 251 247 245 247 251 258 270 278 279 281 274 276 278 280 279 279 274 272 270 268 267 264 265 268 270 271 269 269 271 272 272 274 275
266 263 261 256 255 255 254 252 251 253 256 259 271 279 280 272 277 278 282 282 283 277 273 270 268 269 267 265 267 269 272 273 272 271 272 273 275 276
268 266 263 258 259 263 260 260 259 258 256 252 263 272 274 273 272 277 284 284 284 283 274 276 273 268 265 264 264 265 268 272 276 275 274 275 275 276
279 270 266 263 265 264 263 262 259 257 257 255 261 271 271 269 268 274 278 286 284 275 277 276 275 268 266 263 259 261 269 273 275 278 279 279 277 275
288 287 280 271 272 270 269 264 259 254 253 256 262 260 265 267 270 269 274 282 284 273 282 280 273 269 266 263 265 268 269 273 276 278 280 280 278 276
291 288 286 283 279 275 274 271 267 262 255 253 256 258 264 263 264 267 268 272 276 282 284 280 276 272 271 268 265 264 269 273 277 280 281 280 280 278
292 290 286 284 281 283 279 274 272 272 266 260 257 261 264 264 259 261 266 276 282 278 271 276 282 281 280 269 260 261 270 274 278 281 285 286 286 283
295 294 288 284 286 287 279 273 274 277 281 277 278 274 270 269 266 262 263 270 279 276 270 270 281 291 281 267 260 260 268 273 281 284 287 290 290 286
302 304 298 296 300 297 283 275 277 285 290 290 284 281 273 266 262 254 252 258 276 274 260 269 278 290 283 270 272 270 268 273 279 279 283 289 292 287
305 307 309 307 307 305 297 282 279 287 289 286 284 285 282 273 267 265 260 253 261 265 263 269 276 280 274 280 280 272 273 282 284 282 279 285 289 287
302 305 310 312 308 308 304 296 296 295 284 281 280 283 285 284 285 281 275 271 265 264 264 267 268 272 278 280 279 279 278 278 282 284 288 289 284 281
302 306 309 311 306 302 304 307 306 298 286 279 278 283 286 285 288 293 294 284 277 273 267 266 264 264 267 271 275 280 287 284 280 285 289 289 285 286
301 303 306 307 299 296 301 304 302 297 295 286 288 290 292 289 286 289 291 295 288 282 278 271 265 262 265 271 271 276 279 273 281 289 287 286 286 281
300 299 301 306 310 307 306 304 301 299 300 302 301 296 292 292 293 294 285 289 283 282 290 293 283 271 262 261 267 266 277 283 280 287 290 288 283 277
291 289 292 297 300 303 304 306 307 307 304 301 297 294 292 291 293 298 294 287 285 284 285 295 303 304 293 272 242 260 272 282 287 284 277 279 280 281
277 281 285 289 292 295 296 298 300 302 301 297 292 290 291 289 287 290 293 290 288 290 293 295 296 295 292 296 280 247 273 286 287 289 282 281 278 286
269 273 277 282 286 287 290 292 295 297 294 293 291 288 287 286 285 287 287 289 288 293 296 295 292 293 284 285 291 291 274 272 282 284 291 296 289 289
268 268 269 272 278 281 285 287 287 288 289 290 291 288 287 287 284 284 287 288 288 288 291 293 295 298 298 289 287 292 297 281 274 278 286 291 297 300
269 268 266 265 268 271 276 280 282 283 284 284 286 288 286 285 285 284 287 289 287 288 293 299 304 305 301 288 289 297 305 314 311 295 285 281 274 266
269 269 267 264 261 262 266 270 274 278 280 280 282 285 288 287 287 286 288 288 289 294 301 305 308 306 298 287 289 293 301 311 318 323 323 329 317 307
Height
1452 1452 1452 1452 1452 1452 1452 1453 1454 1452 1450 1449 1449 1449 1449 1449 1449 1449 1449 1448 1448 1448 1448 1447 1447 1447 1446 1446 1447 1446 1446 1445 1445 1444 1443 1442 1442 1441
1447 1447 1447 1447 1447 1447 1447 1447 1448 1447 1445 1444 1444 1444 1444 1443 1443 1443 1442 1442 1441 1441 1441 1440 1440 1439 1439 1439 1439 1439 1438 1438 1437 1437 1436 1435 1434 1433
1443 1442 1442 1442 1442 1442 1442 1442 1442 1441 1440 1438 1439 1438 1438 1438 1437 1437 1436 1435 1435 1434 1434 1433 1432 1432 1432 1432 1431 1431 1430 1430 1429 1429 1428 1428 1426 1425
1438 1437 1437 1437 1436 1436 1436 1436 1436 1435 1435 1433 1433 1432 1432 1432 1431 1431 1430 1429 1428 1427 1427 1426 1425 1425 1424 1424 1424 1423 1423 1422 1422 1421 1420 1419 1418 1417
1434 1433 1432 1432 1431 1431 1431 1431 1430 1430 1430 1428 1427 1427 1426 1426 1426 1425 1424 1423 1422 1420 1419 1419 1418 1417 1417 1416 1416 1415 1415 1415 1414 1413 1412 1411 1410 1408
1430 1428 1428 1427 1427 1426 1426 1426 1425 1425 1424 1423 1422 1421 1421 1420 1420 1419 1417 1416 1415 1414 1413 1412 1411 1410 1409 1409 1408 1408 1408 1407 1406 1406 1404 1403 1402 1401
1425 1424 1423 1423 1422 1422 1421 1420 1420 1419 1418 1417 1416 1416 1415 1415 1414 1413 1412 1410 1408 1408 1406 1405 1404 1402 1402 1401 1401 1400 1400 1399 1399 1398 1396 1395 1394 1393
1421 1420 1419 1419 1417 1416 1416 1415 1415 1414 1413 1412 1411 1410 1409 1409 1409 1408 1407 1405 1402 1402 1400 1398 1398 1395 1394 1394 1394 1393 1392 1392 1391 1390 1389 1387 1386 1385
1418 1417 1415 1414 1413 1411 1410 1409 1409 1408 1408 1407 1406 1404 1404 1404 1403 1402 1401 1400 1397 1396 1395 1391 1391 1388 1388 1387 1387 1386 1385 1384 1383 1383 1381 1380 1379 1378
1415 1413 1411 1409 1408 1406 1405 1403 1403 1402 1402 1401 1400 1399 1398 1398 1397 1396 1395 1393 1392 1391 1390 1386 1384 1382 1381 1380 1379 1378 1378 1377 1376 1375 1374 1373 1372 1370
1411 1409 1407 1405 1403 1402 1400 1398 1397 1396 1396 1395 1394 1393 1392 1392 1391 1390 1389 1387 1385 1383 1384 1382 1378 1376 1374 1373 1372 1372 1371 1370 1369 1368 1367 1366 1365 1364
1407 1405 1403 1401 1399 1398 1396 1394 1392 1391 1390 1389 1388 1387 1386 1385 1385 1384 1383 1382 1380 1377 1377 1376 1373 1372 1368 1366 1366 1366 1364 1363 1363 1362 1361 1360 1359 1357
1404 1401 1399 1397 1395 1394 1392 1390 1388 1387 1385 1384 1383 1381 1380 1379 1378 1378 1377 1377 1375 1373 1372 1371 1369 1368 1366 1361 1359 1359 1358 1357 1356 1355 1354 1353 1353 1352
1400 1398 1395 1393 1391 1390 1388 1386 1385 1383 1381 1380 1378 1376 1374 1373 1372 1372 1371 1370 1369 1368 1367 1367 1365 1363 1361 1357 1354 1353 1353 1352 1351 1350 1349 1348 1347 1347
1397 1395 1392 1389 1388 1386 1384 1383 1381 1379 1377 1375 1373 1371 1370 1368 1367 1366 1365 1364 1363 1363 1362 1361 1359 1358 1356 1353 1350 1348 1347 1346 1346 1345 1344 1343 1342 1341
1394 1391 1389 1386 1384 1383 1381 1379 1377 1376 1374 1371 1369 1367 1365 1364 1362 1361 1360 1359 1357 1356 1356 1355 1354 1353 1350 1349 1347 1344 1343 1342 1341 1341 1339 1338 1337 1336
1391 1388 1386 1383 1381 1379 1378 1376 1374 1372 1370 1368 1366 1363 1361 1360 1358 1357 1356 1354 1353 1351 1349 1349 1348 1348 1346 1345 1342 1340 1339 1338 1337 1336 1335 1333 1332 1331
1388 1385 1382 1380 1378 1376 1374 1373 1371 1369 1367 1365 1363 1360 1358 1356 1355 1354 1352 1351 1349 1347 1345 1344 1343 1341 1341 1340 1339 1337 1335 1334 1333 1332 1331 1329 1327 1327
1385 1382 1380 1378 1376 1374 1372 1370 1367 1366 1364 1362 1360 1358 1356 1354 1352 1350 1349 1347 1345 1344 1342 1341 1340 1338 1337 1334 1333 1334 1332 1330 1328 1327 1326 1325 1323 1322
1381 1379 1377 1375 1373 1371 1369 1367 1365 1363 1361 1359 1357 1355 1353 1351 1349 1348 1346 1344 1342 1340 1339 1338 1337 1336 1334 1333 1330 1329 1329 1327 1325 1323 1322 1321 1320 1319
1377 1375 1373 1371 1369 1368 1366 1364 1362 1360 1358 1356 1354 1352 1351 1349 1347 1345 1343 1342 1340 1338 1336 1334 1333 1333 1332 1331 1328 1325 1325 1324 1323 1321 1319 1318 1316 1315
1373 1371 1370 1368 1366 1364 1362 1360 1358 1357 1355 1353 1351 1350 1348 1346 1344 1343 1341 1339 1337 1335 1333 1332 1331 1330 1328 1327 1325 1323 1321 1320 1320 1319 1317 1316 1314 1313
1369 1367 1366 1364 1362 1360 1358 1357 1355 1353 1352 1350 1348 1347 1345 1343 1342 1340 1338 1337 1335 1333 1331 1329 1328 1327 1326 1325 1323 1321 1319 1318 1316 1315 1315 1314 1313 1312